TimeEST,TemperatureF,Dew PointF,Humidity,Sea Level PressureIn,VisibilityMPH,Wind Direction,Wind SpeedMPH,Gust SpeedMPH,PrecipitationIn,Events,Conditions,WindDirDegrees,DateUTC
12:15 AM,24.8,21.2,86,30.22,10.0,East,11.5,-,N/A,,Overcast,80,2012-12-15 05:15:00
12:35 AM,24.8,21.2,86,30.22,10.0,East,10.4,16.1,N/A,,Overcast,80,2012-12-15 05:35:00
12:55 AM,23.0,21.2,93,30.21,10.0,ENE,10.4,-,N/A,,Overcast,70,2012-12-15 05:55:00
1:15 AM,23.0,21.2,93,30.22,10.0,East,10.4,-,N/A,,Overcast,80,2012-12-15 06:15:00
1:35 AM,23.0,21.2,93,30.21,10.0,East,10.4,-,N/A,,Overcast,80,2012-12-15 06:35:00
1:55 AM,23.0,21.2,93,30.20,10.0,East,11.5,-,N/A,,Overcast,80,2012-12-15 06:55:00
2:15 AM,23.0,21.2,93,30.19,10.0,East,11.5,-,N/A,,Overcast,80,2012-12-15 07:15:00
2:35 AM,24.8,23.0,93,30.19,10.0,East,11.5,-,N/A,,Overcast,80,2012-12-15 07:35:00
2:55 AM,24.8,23.0,93,30.19,10.0,East,12.7,-,N/A,,Overcast,100,2012-12-15 07:55:00
3:15 AM,24.8,23.0,93,30.18,10.0,East,12.7,-,N/A,,Overcast,80,2012-12-15 08:15:00
3:35 AM,24.8,23.0,93,30.17,10.0,East,12.7,16.1,N/A,,Overcast,90,2012-12-15 08:35:00
3:55 AM,24.8,24.8,100,30.18,10.0,East,10.4,-,N/A,,Overcast,100,2012-12-15 08:55:00
4:15 AM,24.8,24.8,100,30.17,10.0,East,11.5,-,N/A,,Overcast,90,2012-12-15 09:15:00
4:35 AM,24.8,24.8,100,30.17,10.0,East,9.2,-,N/A,,Overcast,100,2012-12-15 09:35:00
4:55 AM,24.8,24.8,100,30.16,10.0,East,11.5,-,N/A,,Overcast,90,2012-12-15 09:55:00
5:15 AM,24.8,23.0,93,30.15,10.0,East,13.8,-,N/A,,Overcast,100,2012-12-15 10:15:00
5:35 AM,26.6,26.6,100,30.15,10.0,ESE,13.8,18.4,N/A,,Overcast,110,2012-12-15 10:35:00
5:55 AM,26.6,26.6,100,30.14,10.0,East,18.4,21.9,N/A,,Overcast,100,2012-12-15 10:55:00
6:15 AM,26.6,24.8,93,30.14,10.0,ESE,16.1,-,N/A,,Overcast,110,2012-12-15 11:15:00
6:35 AM,26.6,26.6,100,30.14,10.0,East,15.0,19.6,N/A,,Overcast,100,2012-12-15 11:35:00
6:55 AM,28.4,28.4,100,30.14,10.0,East,15.0,-,N/A,,Overcast,100,2012-12-15 11:55:00
7:15 AM,28.4,28.4,100,30.13,10.0,East,15.0,18.4,N/A,,Overcast,100,2012-12-15 12:15:00
7:35 AM,28.4,28.4,100,30.14,10.0,ESE,15.0,-,N/A,,Overcast,110,2012-12-15 12:35:00
7:55 AM,28.4,28.4,100,30.13,10.0,ESE,17.3,21.9,N/A,,Overcast,110,2012-12-15 12:55:00
8:15 AM,28.4,28.4,100,30.13,10.0,ESE,17.3,21.9,N/A,,Overcast,110,2012-12-15 13:15:00
8:35 AM,28.4,28.4,100,30.12,10.0,East,16.1,21.9,N/A,,Overcast,100,2012-12-15 13:35:00
8:55 AM,28.4,28.4,100,30.11,10.0,East,19.6,23.0,N/A,,Overcast,100,2012-12-15 13:55:00
9:15 AM,28.4,28.4,100,30.10,10.0,East,18.4,23.0,N/A,,Overcast,100,2012-12-15 14:15:00
9:35 AM,28.4,28.4,100,30.10,10.0,East,18.4,-,N/A,,Overcast,100,2012-12-15 14:35:00
9:55 AM,28.4,28.4,100,30.09,10.0,ESE,18.4,23.0,N/A,,Overcast,110,2012-12-15 14:55:00
10:15 AM,28.4,28.4,100,30.08,10.0,ESE,21.9,26.5,N/A,,Overcast,110,2012-12-15 15:15:00
10:35 AM,28.4,28.4,100,30.07,10.0,ESE,18.4,25.3,N/A,,Overcast,110,2012-12-15 15:35:00
10:55 AM,28.4,28.4,100,30.07,9.0,East,16.1,20.7,N/A,,Overcast,100,2012-12-15 15:55:00
11:15 AM,28.4,28.4,100,30.06,7.0,East,17.3,23.0,N/A,,Overcast,90,2012-12-15 16:15:00
11:35 AM,26.6,26.6,100,30.04,4.0,East,18.4,24.2,N/A,,Overcast,100,2012-12-15 16:35:00
11:55 AM,26.6,26.6,100,30.03,5.0,East,18.4,26.5,N/A,,Overcast,100,2012-12-15 16:55:00
12:15 PM,28.4,28.4,100,30.02,3.0,ESE,18.4,24.2,N/A,,Overcast,110,2012-12-15 17:15:00
12:35 PM,28.4,26.6,93,30.00,4.0,East,18.4,21.9,N/A,,Overcast,100,2012-12-15 17:35:00
12:55 PM,28.4,26.6,93,29.99,3.0,East,17.3,-,N/A,,Overcast,100,2012-12-15 17:55:00
1:15 PM,28.4,28.4,100,29.99,5.0,ESE,19.6,-,N/A,,Overcast,110,2012-12-15 18:15:00
1:35 PM,28.4,28.4,100,29.99,10.0,ESE,16.1,21.9,N/A,,Overcast,110,2012-12-15 18:35:00
1:55 PM,30.2,28.4,93,29.98,10.0,ESE,15.0,20.7,N/A,,Overcast,110,2012-12-15 18:55:00
2:15 PM,30.2,30.2,100,29.96,10.0,East,15.0,-,N/A,,Overcast,100,2012-12-15 19:15:00
2:35 PM,30.2,28.4,93,29.94,8.0,East,13.8,20.7,N/A,,Overcast,90,2012-12-15 19:35:00
2:55 PM,30.2,30.2,100,29.93,2.0,East,18.4,23.0,N/A,,Overcast,100,2012-12-15 19:55:00
3:15 PM,28.4,28.4,100,29.91,1.5,East,20.7,28.8,N/A,,Overcast,90,2012-12-15 20:15:00
3:35 PM,28.4,28.4,100,29.93,1.0,East,18.4,28.8,N/A,,Overcast,100,2012-12-15 20:35:00
3:55 PM,28.4,28.4,100,29.92,1.2,East,20.7,27.6,N/A,,Overcast,100,2012-12-15 20:55:00
4:15 PM,30.2,30.2,100,29.91,1.0,East,18.4,24.2,N/A,,Overcast,100,2012-12-15 21:15:00
4:35 PM,30.2,30.2,100,29.89,0.8,East,18.4,28.8,N/A,,Overcast,90,2012-12-15 21:35:00
4:55 PM,30.2,30.2,100,29.88,1.8,East,23.0,28.8,N/A,,Overcast,90,2012-12-15 21:55:00
5:15 PM,30.2,30.2,100,29.86,2.0,East,19.6,27.6,N/A,,Overcast,90,2012-12-15 22:15:00
5:35 PM,30.2,30.2,100,29.85,3.0,East,20.7,26.5,N/A,,Overcast,90,2012-12-15 22:35:00
5:55 PM,30.2,30.2,100,29.84,2.0,East,19.6,25.3,N/A,,Overcast,100,2012-12-15 22:55:00
6:15 PM,30.2,30.2,100,29.83,1.0,East,18.4,24.2,N/A,,Overcast,100,2012-12-15 23:15:00
6:35 PM,30.2,30.2,100,29.83,1.5,East,17.3,25.3,N/A,,Overcast,100,2012-12-15 23:35:00
6:55 PM,32.0,32.0,100,29.83,2.0,East,20.7,26.5,N/A,,Overcast,100,2012-12-15 23:55:00
7:15 PM,32.0,32.0,100,29.82,2.0,East,18.4,24.2,N/A,,Overcast,100,2012-12-16 00:15:00
7:35 PM,32.0,30.2,93,29.81,2.0,East,20.7,27.6,N/A,,Overcast,100,2012-12-16 00:35:00
7:55 PM,32.0,30.2,93,29.80,2.0,East,19.6,28.8,N/A,,Overcast,90,2012-12-16 00:55:00
8:15 PM,32.0,30.2,93,29.79,1.5,East,19.6,24.2,N/A,,Overcast,100,2012-12-16 01:15:00
8:35 PM,33.8,33.8,100,29.78,1.2,East,17.3,28.8,N/A,,Overcast,100,2012-12-16 01:35:00
8:55 PM,33.8,33.8,100,29.77,1.0,East,19.6,26.5,N/A,,Overcast,100,2012-12-16 01:55:00
9:15 PM,33.8,33.8,100,29.76,0.8,East,21.9,27.6,N/A,,Overcast,100,2012-12-16 02:15:00
9:35 PM,33.8,33.8,100,29.76,0.5,East,19.6,26.5,N/A,,Overcast,100,2012-12-16 02:35:00
9:55 PM,33.8,33.8,100,29.75,0.8,East,18.4,26.5,N/A,,Overcast,100,2012-12-16 02:55:00
10:15 PM,33.8,33.8,100,29.74,0.8,East,18.4,24.2,N/A,,Overcast,90,2012-12-16 03:15:00
10:35 PM,33.8,33.8,100,29.72,0.8,East,16.1,24.2,0.01,,Overcast,90,2012-12-16 03:35:00
10:55 PM,33.8,33.8,100,29.71,1.0,East,15.0,-,0.01,,Overcast,90,2012-12-16 03:55:00
11:15 PM,33.8,33.8,100,29.70,1.0,East,16.1,-,0.01,,Overcast,90,2012-12-16 04:15:00
11:35 PM,32.0,30.2,93,29.69,2.0,East,17.3,26.5,0.01,,Overcast,90,2012-12-16 04:35:00
11:55 PM,33.8,33.8,100,29.68,1.8,East,19.6,24.2,0.01,,Overcast,90,2012-12-16 04:55:00